Location: Unspecified
(0.0000°N, 0.0000°E)
Time: 10:05:59
(UTC+00:00)

Vanguard 2 - Pass Details

Date: 27 October 2021
Orbit: 554 x 2936 km, 32.9° (Epoch: 06 December)

Event Time Altitude Azimuth Distance (km) Brightness Sun altitude
Rises 23:57:37 0° 268° (W) 6,786 12.3 -76.8°
Enters shadow 23:58:36 - 269° (W) 6,603 12.2 -76.7°
Reaches altitude 10° 00:03:40 10° 279° (W) 5,684 - -76.3°
Maximum altitude 00:16:11 25° 327° (NNW) 4,036 - -74.9°
Drops below altitude 10° 00:26:04 10° 17° (NNE) 4,390 - -73.5°
Sets 00:30:01 0° 31° (NNE) 5,011 - -72.8°
